User: anonymous   Login
Location: Unspecified
(0.0000°N, 0.0000°E)
Time: 14:04:57
(UTC+00:00)
Language:

Cosmos 1660 - Orbit

View from above orbital plane
View from above orbital plane
View from above satellite
View from above satellite

Ground track
Ground track

The orbit data is extracted from the following two-line orbital elements,

1 15821U 85047A   18113.71735375 -.00000020 +00000-0 -18828-4 0  9998
2 15821 073.6261 209.0371 0027093 010.3485 101.0379 12.40771799488286
Epoch (UTC): 23 April 2018 17:12:59
Eccentricity: 0.0027093
inclination: 73.6261°
perigee height: 1482 km
apogee height: 1524 km
right ascension of ascending node: 209.0371°
argument of perigee: 10.3485°
revolutions per day: 12.40771799
mean anomaly at epoch: 101.0379°
orbit number at epoch: 48828

The dashed part of the orbit path shows where the satellite is in the earth's shadow,  

DLR